Location: Arthez
(43.0833°N, 0.2500°W)
Time: 01:47:01
(UTC+00:00)

NOSS 3-1 (A) - Pass Details

Date: 07 June 2022
Orbit: 711 x 1501 km, 63.4° (Epoch: 21 May)

Event Time Altitude Azimuth Distance (km) Brightness Sun altitude
Rises 21:17:51 0° 323° (NW) 3,939 8.7 -14.3°
Reaches altitude 10° 21:20:21 10° 324° (NW) 3,082 7.5 -14.6°
Maximum altitude 21:27:58 87° 53° (NE) 1,333 4.2 -15.4°
Enters shadow 21:34:16 22° 144° (SE) 2,728 5.2 -16.1°
